Probability
0 0 0 0 0 0 0 0 0 0 0 0 0 0 0 0 0 0 0 0 0 0 0 0 0 0 0 0 0 0 0 0 0 0 0 0 0 0 0 0 0 0 0
0 0 0 0 0 0 0 0 0 0 0 0 0 0 0 0 0 0 0 0 0 0 0 0 0 0 0 0 0 0 0 0 0 0 0 0 0 0 0 0 0 0 0
0 0 0 0 0 0 0 0 0 0 0 0 0 0 0 0 0 0 0 0 0 0 0 0 0 0 0 0 0 0 0 0 0 0 0 0 0 0 0 0 0 0 0
0 0 0 0 0 0 0 0 0 0 0 0 0 0 0 0 0 0 0 0 0 0 0 0 0 0 0 0 0 0 0 0 0 0 0 0 0 0 0 0 0 0 0
0 0 0 0 0 0 0 0 0 0 0 0 0 0 0 0 0 0 0 0 0 0 0 0 0 0 0 0 0 0 0 0 0 0 0 0 0 0 0 0 0 0 0
0 0 0 0 0 0 0 0 0 0 0 0 0 0 0 0 0 0 0 0 0 0 0 0 0 0 0 0 0 0 0 0 0 0 0 0 0 0 0 0 0 0 0
0 0 0 0 0 0 0 0 0 0 0 0 0 0 0 0 0 0 0 0 0 0 0 1 0 0 0 0 0 0 0 0 0 0 0 0 0 0 0 0 0 0 0
0 0 0 0 0 0 0 0 0 0 0 0 0 0 0 0 0 0 0 0 0 0 0 0 0 0 0 0 0 0 0 0 0 0 0 0 0 0 0 0 0 0 0
0 0 0 0 0 0 0 0 0 0 0 0 0 0 0 0 0 0 0 0 0 0 0 0 0 0 0 0 0 0 0 0 0 0 0 0 0 0 0 0 0 0 0
0 0 0 0 0 0 0 0 0 0 0 0 0 0 0 0 0 0 0 0 0 0 0 0 0 0 0 0 0 0 0 0 0 0 0 0 0 0 0 0 0 0 0
0 0 0 0 0 0 0 0 0 0 0 0 0 0 0 0 0 0 0 0 0 0 0 0 0 0 0 0 0 0 0 0 0 0 0 0 0 0 0 0 0 0 0
0 0 0 0 0 0 0 0 0 0 0 0 0 0 0 0 0 0 0 0 0 0 0 0 0 0 0 0 0 0 0 0 0 0 0 0 0 0 0 0 0 0 0
0 0 0 0 0 0 0 0 0 0 0 0 0 0 0 0 0 0 0 0 0 0 0 0 0 0 0 0 0 0 0 0 0 0 0 0 0 0 0 0 0 0 0
0 0 0 0 0 0 0 0 0 0 0 0 0 0 0 0 0 0 0 0 0 0 0 0 0 0 0 0 0 0 0 0 0 0 0 0 0 0 0 0 0 0 0
0 0 0 0 0 0 0 0 0 0 0 0 0 0 0 0 0 0 0 0 0 0 0 0 0 0 0 0 0 0 0 0 0 0 0 0 0 0 0 0 0 0 0
0 0 0 0 0 0 0 0 0 0 0 0 0 0 0 0 0 0 0 0 0 0 0 0 0 0 0 0 0 0 0 0 0 0 0 0 0 0 0 0 0 0 0
0 0 0 0 0 0 0 0 0 0 0 0 0 0 0 0 0 0 0 0 0 0 0 0 0 0 0 0 0 0 0 0 0 0 0 0 0 0 0 0 0 0 0
0 0 0 0 0 0 0 0 0 0 0 0 0 0 0 0 0 0 0 0 0 0 0 0 0 0 0 0 0 0 0 0 0 0 0 0 0 0 0 0 0 0 0
0 0 0 0 0 0 0 0 0 0 0 0 0 0 0 0 0 0 0 0 0 0 0 0 0 0 0 0 0 0 0 0 0 0 0 0 0 0 0 0 0 0 0
0 0 0 0 0 0 0 0 0 0 0 0 0 0 0 0 0 0 0 0 0 0 0 0 0 0 0 0 0 0 0 0 0 0 0 0 0 0 0 0 0 0 0
0 0 0 0 0 0 0 0 0 0 0 0 0 0 0 0 0 0 0 0 0 0 0 0 0 0 0 0 0 0 0 0 0 0 0 0 0 0 0 0 0 0 0
0 0 0 0 0 0 0 0 0 0 0 0 0 0 0 0 0 0 0 0 0 0 0 0 0 0 0 0 0 0 0 0 0 0 0 0 0 0 0 0 0 0 0
0 0 0 0 0 0 0 0 0 0 0 0 0 0 0 0 0 0 0 0 0 0 0 0 0 0 0 0 0 0 0 0 0 0 0 0 0 0 0 0 0 0 0
0 0 0 0 0 0 0 0 0 0 0 0 0 0 0 0 0 0 0 0 0 0 0 0 0 0 0 0 0 0 0 0 0 0 0 0 0 0 0 0 0 0 0
0 0 0 0 0 0 0 0 0 0 0 0 0 0 0 0 0 0 0 0 0 0 0 0 0 0 0 0 0 0 0 0 0 0 0 0 0 0 0 0 0 0 0
0 0 0 0 0 0 0 0 0 0 0 0 0 0 0 0 0 0 0 0 0 0 0 0 0 0 0 0 0 0 0 0 0 0 0 0 0 0 0 0 0 0 0
Wind_Speed
2 2 3 4 4 3 3 4 4 3 3 3 3 2 1 1 1 1 2 2 2 2 2 1 1 1 1 1 1 1 1 1 1 1 2 2 2 1 1 1 1 2 2
1 3 4 3 4 4 3 3 3 3 3 2 2 2 2 1 1 1 1 2 2 1 2 2 1 1 1 1 1 1 1 1 1 1 1 1 2 2 2 1 1 1 1
5 4 4 4 4 4 4 4 3 3 3 3 3 3 2 2 1 1 1 1 1 1 1 1 1 1 1 0 0 1 2 1 0 1 1 1 2 2 2 1 1 1 1
4 5 5 4 4 4 3 3 3 3 3 3 3 4 3 2 2 1 1 1 1 1 1 1 1 1 1 1 0 0 1 2 1 0 0 1 2 1 2 2 1 2 2
4 4 5 5 4 3 3 3 3 3 2 3 4 3 2 1 1 1 1 1 1 1 1 1 1 1 1 1 1 1 0 1 2 1 1 0 0 1 1 3 2 2 2
3 3 3 4 3 3 3 3 3 2 2 3 3 3 3 2 2 1 1 1 0 0 0 1 1 1 1 0 0 0 0 1 1 1 1 1 1 1 2 2 3 3 3
4 3 3 3 4 4 4 3 3 2 2 2 2 3 3 3 3 3 2 1 1 1 1 1 1 1 1 1 1 0 0 1 1 2 1 1 2 1 1 2 2 3 3
3 4 4 3 4 5 4 4 4 3 2 2 2 2 2 2 2 2 2 2 1 1 2 2 2 1 1 1 1 1 1 1 1 2 2 1 2 2 2 2 2 3 3
2 3 3 3 3 4 4 5 4 3 3 3 2 2 2 2 2 2 2 1 1 1 1 2 2 2 2 2 1 1 2 2 2 2 2 2 2 2 2 2 2 2 4
1 1 2 3 3 3 3 3 3 3 3 3 3 2 2 2 2 2 2 2 2 1 1 2 2 2 2 2 2 2 2 2 2 2 2 2 2 2 2 2 2 2 3
2 2 2 2 2 2 3 3 3 3 3 3 3 2 2 2 2 2 2 2 2 2 2 2 2 2 2 2 2 3 3 3 3 3 3 4 3 2 2 2 2 2 2
2 2 2 1 1 2 2 3 4 4 4 4 3 3 3 2 2 3 3 2 3 3 3 2 2 3 3 3 3 4 4 4 4 4 3 4 3 3 3 2 3 3 3
2 2 2 2 3 3 3 3 4 4 4 3 3 3 3 3 3 3 3 2 3 3 3 3 3 3 3 3 4 4 4 4 5 4 4 5 4 4 3 3 3 3 3
3 3 3 3 3 3 3 3 3 4 3 3 4 4 4 4 3 3 3 3 3 3 3 3 3 3 3 4 4 4 4 4 4 4 4 5 5 5 5 4 4 3 3
3 4 4 4 3 3 3 3 3 3 4 4 4 4 4 3 3 3 3 3 3 3 3 3 3 3 3 4 4 4 4 4 4 4 4 5 6 7 6 4 4 4 3
4 4 4 4 4 4 4 3 4 4 3 4 4 4 3 3 3 3 3 2 3 3 2 3 3 4 4 6 8 6 4 4 4 4 4 4 5 7 9 10 9 7 5
3 4 4 4 4 4 4 4 4 3 3 4 3 3 3 3 3 3 3 3 3 2 3 3 3 4 6 8 9 8 4 4 4 4 4 4 4 6 4 7 9 9 11
4 4 4 3 3 2 2 2 2 3 3 3 3 3 3 3 3 3 3 3 2 3 3 4 4 4 6 8 9 8 4 4 4 5 5 5 5 5 5 4 5 6 6
4 4 4 3 2 2 2 1 2 2 3 4 4 4 3 4 3 4 4 3 3 3 4 4 4 5 6 8 8 7 3 3 4 4 4 5 5 8 9 5 5 6 6
3 3 2 2 2 2 1 1 2 3 4 4 4 4 4 4 4 4 4 3 3 4 3 4 4 5 5 8 8 7 3 3 4 3 4 7 8 9 9 6 5 7 6
3 2 2 2 2 2 1 2 3 4 5 4 3 3 4 4 4 4 3 3 3 3 3 4 4 4 5 7 8 8 3 4 4 3 3 4 9 10 11 9 6 8 6
3 2 2 3 2 2 2 3 5 5 3 3 3 3 3 3 3 3 3 3 3 3 3 3 4 4 4 6 7 8 7 6 4 4 4 4 8 10 10 8 8 10 7
3 2 2 3 3 3 3 4 5 3 3 3 3 3 3 3 3 3 3 3 3 3 3 3 4 4 3 4 8 8 8 8 5 4 7 8 9 8 7 8 9 7 3
3 3 3 4 4 4 3 4 4 3 3 3 4 3 3 3 3 2 3 3 3 3 3 4 4 4 3 3 3 3 4 5 5 4 5 7 7 6 6 6 4 3 3
3 3 3 4 5 5 4 4 3 3 3 4 3 3 3 3 3 3 3 4 4 5 5 4 4 4 5 5 7 5 3 3 4 3 2 2 2 2 2 2 2 2 2
3 3 4 4 5 5 5 4 3 3 3 3 3 3 3 3 3 3 3 5 6 7 8 8 7 6 8 9 9 9 9 8 7 4 2 3 3 3 3 3 3 2 3
Wind_Direction
242 166 162 148 137 133 138 137 134 130 118 111 112 114 102 90 85 86 88 80 69 72 80 71 43 51 67 51 68 82 58 29 18 43 9 350 4 27 45 60 64 49 40
202 170 166 149 149 152 148 138 140 137 130 125 125 129 132 122 115 92 74 81 74 62 81 80 60 57 70 42 58 96 104 35 39 80 86 351 336 343 355 11 75 43 19
188 179 168 170 163 165 168 159 149 139 134 128 111 98 77 69 66 68 55 58 77 67 81 93 95 79 94 84 46 124 138 165 349 84 139 157 237 299 310 308 349 351 345
184 180 174 174 180 184 167 152 146 138 142 136 135 139 147 158 192 177 151 88 80 85 84 87 106 102 90 85 6 85 168 160 193 270 326 196 177 181 292 305 313 317 300
183 186 185 178 181 171 159 152 138 132 132 136 146 144 145 156 140 115 121 99 77 94 106 115 111 100 85 82 37 29 116 164 185 193 201 261 282 184 197 268 296 303 275
180 182 179 159 155 144 142 138 132 134 142 135 133 145 155 154 145 161 189 197 182 94 155 141 139 149 160 186 210 183 161 182 187 196 187 191 201 213 203 241 277 281 276
171 167 163 165 162 161 161 156 150 154 158 144 145 155 165 168 183 193 196 196 201 214 224 208 204 204 210 214 204 170 239 205 197 205 215 212 225 217 216 235 270 283 288
175 178 180 178 176 176 171 164 167 166 165 165 173 168 170 178 194 201 196 195 208 223 217 210 216 220 221 226 206 196 238 215 214 226 224 226 240 230 217 218 246 288 291
187 191 187 180 183 181 181 176 174 177 183 182 176 180 176 180 195 198 191 196 209 215 205 200 214 226 222 218 208 220 236 213 221 227 229 237 246 239 235 217 209 229 275
214 201 201 197 191 189 187 175 181 195 203 193 192 193 193 199 197 185 195 206 220 222 214 215 222 235 234 223 211 224 232 217 232 226 222 239 244 242 239 230 220 212 236
214 209 206 203 182 175 183 184 190 199 202 200 200 198 204 206 201 200 212 214 221 219 220 224 225 231 237 235 226 231 228 225 240 241 232 240 240 236 238 234 227 228 222
214 207 195 175 179 199 205 200 198 201 205 199 193 200 206 204 207 217 223 216 219 223 226 224 226 235 239 238 235 238 237 226 235 239 237 245 243 239 239 232 234 237 233
225 212 200 200 209 218 223 220 211 210 208 195 190 199 209 212 220 225 226 220 220 227 230 222 228 238 242 242 241 236 237 231 234 234 234 242 235 244 246 240 240 243 251
220 214 221 224 222 223 224 228 230 215 203 196 195 208 221 222 228 232 231 229 225 227 234 235 234 238 244 247 245 243 240 239 240 237 237 239 232 236 239 244 241 244 250
237 227 226 230 226 222 222 223 226 217 203 196 206 220 225 222 228 237 239 238 236 237 235 239 247 248 247 246 241 243 235 234 243 246 242 241 246 249 249 252 241 235 243
252 246 242 237 230 226 226 227 228 220 201 202 216 222 218 220 229 235 236 238 247 248 242 244 249 258 262 264 260 255 235 232 236 249 252 252 254 259 264 266 260 249 242
257 254 251 245 239 235 227 228 231 218 203 214 223 224 221 227 238 239 237 239 245 248 252 253 250 258 266 270 269 260 241 231 235 239 246 261 263 267 260 266 268 264 260
264 263 259 260 260 246 238 236 231 211 209 221 229 228 222 233 243 242 241 246 246 250 253 255 252 256 268 273 272 266 249 236 239 238 236 245 256 258 262 258 261 261 258
260 260 253 253 252 249 237 229 239 229 224 230 235 233 225 230 235 241 247 246 246 253 253 253 249 254 270 275 275 270 244 243 248 248 245 248 252 263 270 265 262 270 268
280 280 280 280 263 262 229 221 241 237 240 239 239 240 230 226 233 240 248 247 239 247 255 261 255 253 264 275 277 269 243 245 256 258 256 259 262 268 272 263 253 262 265
298 297 290 281 269 271 245 246 251 250 250 247 245 244 237 232 236 242 245 245 247 254 257 264 268 261 264 273 271 268 249 239 250 258 262 260 269 272 274 269 254 259 268
308 301 292 288 281 254 235 251 257 259 257 248 243 243 243 241 237 233 247 246 239 248 258 266 278 272 272 271 269 268 265 258 247 256 260 264 275 277 279 275 265 267 270
290 291 274 280 282 263 237 248 262 261 246 241 245 248 250 244 232 227 237 246 235 237 253 257 270 278 277 273 272 273 275 272 263 256 264 272 278 282 282 278 269 267 248
287 283 277 281 286 281 267 254 262 253 236 241 247 245 244 252 245 236 231 233 236 241 249 254 262 272 277 270 264 261 268 271 272 268 267 273 279 282 284 287 280 258 236
284 275 272 275 280 285 282 274 261 241 240 243 246 244 242 246 253 250 238 239 237 231 241 247 246 258 271 269 270 272 264 257 258 274 269 264 277 279 283 286 280 267 250
287 290 284 279 282 283 282 279 264 239 236 247 248 243 241 242 244 253 273 262 253 261 258 257 258 261 266 282 279 276 275 276 273 271 257 257 256 260 266 273 275 265 251